User: anonymous
Location: Vancouver
(49.2500°N, 123.1330°W)
Time: 15:59:14
(UTC-07:00)
Language:

Iridium 35 - Orbit

View from above orbital plane
View from above orbital plane
View from above satellite
View from above satellite

Ground track
Ground track

The orbit data is extracted from the following two-line orbital elements,

1 24966U 97056B   14205.04907252 -.00000032  00000-0 -18321-4 0  9193
2 24966 086.3938 041.4170 0002111 111.8549 248.2872 14.34216403880723
Epoch (UTC): 24 July 2014 01:10:39
Eccentricity: 0.0002111
inclination: 86.3938°
perigee height: 776 km
apogee height: 779 km
right ascension of ascending node: 41.4170°
argument of perigee: 111.8549°
revolutions per day: 14.34216403
mean anomaly at epoch: 248.2872°
orbit number at epoch: 88072

The dashed part of the orbit path shows where the satellite is in the earth's shadow,  

DLR